sat.trackr.live / text

‹ back to catalog

STARLINK-36289

NORAD 67827 · 2026-033G

PAYLOAD ACTIVE UNKNOWN

§ Identity

Operator
Country
US
Launch date
2026-02-16
Launch site
AFETR
Launch vehicle
Mass (kg)
RCS (m²)

Purposes: comms

External: N2YO · Heavens-Above · Gunter

§ Orbital elements

Epoch: 2026-05-25T03:36:24.554016Z

Period
94.27 min
Inclination
43.0005°
Eccentricity
0.0001884
Mean motion
15.27586158 rev/d
Perigee alt
481.7 km
Apogee alt
484.3 km
Semi-major
6,861.2 km
B*
4.5805e-4
RAAN
195.5993°
Arg perigee
268.4725°
Mean anomaly
91.5911°
Rev number
1,636

§ Raw data

STARLINK-362891 67827U 26033G   26145.15028419  .00012366  00000+0  45805-3 0  99942 67827  43.0005 195.5993 0001884 268.4725  91.5911 15.27586158 16360

JSON: /api/v1/satellites/67827 · /tle

For live sub-satellite position, see the globe view (requires WebGL).

§ Visibility from observer

Set your observer location to see the next 7 days of passes ≥ 10°. The values pass through the URL so the page stays shareable.

No JS? Fill the form by hand. The geolocation button needs JavaScript.